Regional Weather Roundup
Issued by NWS Cleveland, OH

Home | Current Version | Previous Version | Text Only | Print | Product List | Glossary Off
Versions: 1 2 3 4 5 6 7 8 9 10 11 12 13 14 15 16 17 18 19 20 21 22 23 24 25 26 27 28 29 30 31 32 33 34 35 36 37 38 39 40 41 42 43 44 45 46 47 48 49 50

000
ASUS41 KCLE 302300
RWRCLE
OHIO REGIONAL WEATHER ROUNDUP
NATIONAL WEATHER SERVICE WILMINGTON, OH
700 PM EDT FRI SEP 30 2016

NOTE: "FAIR" INDICATES FEW OR NO CLOUDS BELOW 12,000 FEET WITH NO
SIGNIFICANT WEATHER AND/OR OBSTRUCTIONS TO VISIBILITY.

OHZ001>008-015>018-024>027-034-035-043-044-010000-
   NORTHWEST OHIO

CITY           SKY/WX    TMP DP  RH WIND       PRES   REMARKS
DEFIANCE       LGT RAIN  62  58  86 NE9       30.03F
FINDLAY        FAIR      61  57  87 NE12      30.03R
TOLEDO EXPRESS LGT RAIN  60  60 100 S6        30.09R FOG
TOLEDO EXEC    CLOUDY    62  61  96 S8        30.10R
LIMA           FAIR      59  58  96 E8        30.03R
$$

OHZ009>014-019>023-028>033-038-089-010000-
   NORTHEAST OHIO

CITY           SKY/WX    TMP DP  RH WIND       PRES   REMARKS
CLE-HOPKINS    CLOUDY    62  57  83 E12       30.10R
CLE-LAKEFRONT  CLOUDY    62  57  83 E14G22    30.08R
CUY CO. ARPT   CLOUDY    61  59  94 SE14      30.09S
LORAIN-ELYRIA  CLOUDY    60  57  89 E7        30.08S
ASHTABULA      FAIR      61  57  87 E8        30.12F
AKRON-CANTON   CLOUDY    60  56  86 E15       30.08R
WOOSTER        NOT AVBL
MANSFIELD      CLOUDY    61  59  93 E9        30.06R
YOUNGSTOWN     LGT RAIN  58  55  90 E15       30.09S
$$

OHZ042-051>053-060>062-070>072-077>081-010000-
  SOUTHWEST OHIO

CITY           SKY/WX    TMP DP  RH WIND       PRES   REMARKS
CINC-COVINGTON MOCLDY    62  52  69 SW7       30.01R
CINC-LUNKEN    FAIR      61  58  90 CALM      30.01R
HAMILTON       FAIR      60  56  86 CALM      30.01R
DAYTON         NOT AVBL
WRIGHT-PAT AFB NOT AVBL
DAYTON GENERAL CLOUDY    63  57  81 CALM      30.00S
WILMINGTON     FAIR      61  55  81 S3        30.01R
$$

OHZ036-037-039>041-045>050-054>059-063>069-073>076-082>088-010000-
  CENTRAL AND SOUTHEAST OHIO

CITY           SKY/WX    TMP DP  RH WIND       PRES   REMARKS
COLUMBUS       LGT RAIN  63  63 100 CALM      30.01S
OSU AIRPORT    CLOUDY    63  61  93 N3        30.02R
BOLTON FIELD   NOT AVBL
RICKENBACK AFB NOT AVBL
NEWARK         MOCLDY    63  60  90 NE5       30.01S
MARION         CLOUDY    62  59  90 NE7       30.04S
LANCASTER      LGT RAIN  65  63  93 CALM      30.01S
ZANESVILLE     CLOUDY    65  60  84 E7        30.02S
NEW PHILLY     CLOUDY    63  59  87 E12       30.06S
$$




USA.gov is the U.S. government's official web portal to all federal, state and local government web resources and services.